This is the latest recevied weather packets stored in our database for station/object K5NCO. If no packets are shown the sender has not sent any weather packets the latest 10 day(s).
| Time | Temp. | Humidity | Pressure | Rain* | Wind** | Luminosity | Snow |
|---|---|---|---|---|---|---|---|
| 1777505081 | 17.22° C | 94% | 1013.2 hPa | 0 mm | - | 26 W/m² | - |
| 1777504779 | 17.22° C | 94% | 1013 hPa | 0 mm | - | 30 W/m² | - |
| 1777504476 | 17.22° C | 94% | 1013.4 hPa | 0 mm | - | 26 W/m² | - |
| 1777504171 | 17.22° C | 94% | 1013.4 hPa | 0 mm | - | 28 W/m² | - |
| 1777503867 | 17.22° C | 94% | 1013.7 hPa | 0 mm | - | 26 W/m² | - |
| 1777503564 | 17.22° C | 94% | 1013.5 hPa | 0 mm | - | 24 W/m² | - |
| 1777503261 | 17.22° C | 94% | 1013.4 hPa | 0 mm | - | 24 W/m² | - |
| 1777502957 | 17.22° C | 94% | 1013.2 hPa | 0 mm | - | 21 W/m² | - |
| 1777502655 | 17.22° C | 94% | 1013.4 hPa | 0 mm | - | 35 W/m² | - |
| 1777502351 | 17.78° C | 94% | 1013.1 hPa | 0 mm | - | 23 W/m² | - |
| 1777502048 | 17.78° C | 93% | 1013.2 hPa | 0 mm | - | 34 W/m² | - |
| 1777501744 | 17.78° C | 93% | 1013.4 hPa | 0 mm | - | 33 W/m² | - |
| 1777501442 | 17.78° C | 93% | 1013.2 hPa | 0 mm | - | 38 W/m² | - |
| 1777501139 | 17.78° C | 93% | 1013.1 hPa | 0 mm | - | 55 W/m² | - |
| 1777500838 | 17.78° C | 93% | 1012.9 hPa | 0 mm | - | 41 W/m² | - |
| 1777500534 | 17.78° C | 93% | 1012.9 hPa | 0 mm | - | 42 W/m² | - |
| 1777500230 | 17.78° C | 93% | 1012.9 hPa | 0 mm | - | 54 W/m² | - |
| 1777499927 | 17.78° C | 93% | 1012.8 hPa | 0 mm | - | 43 W/m² | - |
| 1777499623 | 17.78° C | 94% | 1013.1 hPa | 0 mm | - | 50 W/m² | - |
| 1777499321 | 17.78° C | 94% | 1012.7 hPa | 0 mm | - | 64 W/m² | - |
| 1777499019 | 17.78° C | 95% | 1013.1 hPa | 0 mm | - | 56 W/m² | - |
| 1777498714 | 17.78° C | 95% | 1012.8 hPa | 0 mm | - | 58 W/m² | - |
| 1777498411 | 17.78° C | 95% | 1012.9 hPa | 0 mm | - | 66 W/m² | - |
| 1777498109 | 17.78° C | 94% | 1012.9 hPa | 0 mm | - | 77 W/m² | - |
| 1777497806 | 17.78° C | 94% | 1013 hPa | 0 mm | - | 76 W/m² | - |
* Rain latest hour (hover to see other rain measurements)
** Current wind speed in m/s (hover to see current wind gust speed)